Tacoma Narrows, WA
on Tuesday, February 5, 2013

Tuesday
Previous Day Next Day
Daily Summary
 ActualAverageRecord
Temperature
Mean Temperature °F °F  
Max Temperature 48°F 46°F 57°F (1998)
Min Temperature 44°F 36°F 21°F (2014)
Degree Days
Heating Degree Days 19    
Moisture
Dew Point 40°F   
Average Humidity 80    
Maximum Humidity 86    
Minimum Humidity 71    
Precipitation
Precipitation 0.12 in in in ()
Wind
Wind Speed 11 mph   
Max Wind Speed 17 mph   
Max Gust Speed 24 mph   
Visibility 10 miles   
Events Rain   
Averages and records for this station are not official NWS values.
Key: T is trace of precipitation, MM is missing value
Source: NWS Daily Summary
Seasonal Weather Averages
Time(PST)TemperatureDew PointHumidity Pressure Visibility Wind DirectionWind SpeedGust SpeedPrecipitationEvents Conditions
12:53 AM 44.1°F 39.9°F 85% 29.91 in 10.0 miles SSW 4.6 mph - N/A   Mostly Cloudy
1:53 AM 45.0°F 39.9°F 82% 29.91 in 10.0 miles South 8.1 mph - N/A   Overcast
2:53 AM 45.0°F 39.9°F 82% 29.88 in 10.0 miles South 9.2 mph - N/A   Overcast
3:53 AM 45.0°F 39.9°F 82% 29.89 in 10.0 miles SSW 6.9 mph - N/A   Overcast
4:53 AM 44.1°F 39.9°F 85% 29.88 in 9.0 miles South 9.2 mph - 0.05 in Rain Light Rain
5:53 AM 45.0°F 39.0°F 80% 29.87 in 10.0 miles South 10.4 mph - 0.02 in   Overcast
6:53 AM 44.6°F 39.2°F 81% 29.85 in 10.0 miles South 8.1 mph - N/A   Overcast
7:53 AM 44.1°F 39.0°F 82% 29.86 in 10.0 miles South 12.7 mph - N/A   Overcast
8:53 AM 45.0°F 39.0°F 80% 29.87 in 10.0 miles SSW 15.0 mph - 0.00 in   Overcast
9:53 AM 46.9°F 39.0°F 74% 29.87 in 10.0 miles South 15.0 mph - N/A   Mostly Cloudy
10:53 AM 48.0°F 39.0°F 71% 29.88 in 10.0 miles South 16.1 mph 23.0 mph N/A   Overcast
11:53 AM 48.0°F 39.0°F 71% 29.89 in 10.0 miles SSW 11.5 mph - N/A   Overcast
12:53 PM 48.0°F 42.1°F 80% 29.87 in 10.0 miles South 16.1 mph 23.0 mph 0.00 in Rain Light Rain
1:53 PM 48.9°F 39.9°F 71% 29.86 in 10.0 miles South 13.8 mph 21.9 mph 0.00 in   Overcast
2:53 PM 48.0°F 39.9°F 74% 29.86 in 10.0 miles South 17.3 mph 24.2 mph 0.00 in   Overcast
3:53 PM 46.0°F 39.9°F 79% 29.86 in 10.0 miles SSW 11.5 mph - 0.02 in   Overcast
4:53 PM 45.0°F 41.0°F 86% 29.87 in 6.0 miles SW 8.1 mph - 0.02 in Rain Light Rain
5:53 PM 45.0°F 41.0°F 86% 29.87 in 10.0 miles South 12.7 mph - 0.00 in   Overcast
6:53 PM 44.1°F 39.9°F 85% 29.88 in 10.0 miles South 15.0 mph 23.0 mph 0.00 in   Overcast
7:53 PM 44.1°F 39.0°F 82% 29.91 in 10.0 miles South 12.7 mph - 0.00 in Rain Light Rain
8:53 PM 44.1°F 39.0°F 82% 29.92 in 10.0 miles South 17.3 mph - 0.01 in Rain Light Rain
9:22 PM 44.6°F 39.2°F 81% 29.92 in 10.0 miles South 13.8 mph - 0.00 in   Overcast
9:53 PM 44.1°F 39.0°F 82% 29.93 in 10.0 miles South 13.8 mph 20.7 mph 0.00 in   Overcast
10:12 PM 44.6°F 39.2°F 81% 29.93 in 10.0 miles South 13.8 mph - N/A   Scattered Clouds
10:53 PM 44.1°F 39.0°F 82% 29.95 in 10.0 miles South 17.3 mph 24.2 mph 0.00 in Rain Light Rain
11:53 PM 44.1°F 39.0°F 82% 29.96 in 10.0 miles South 12.7 mph - 0.00 in Rain Light Rain
Moon Phase
Feb. 05 Feb. 10 Feb. 17 Feb. 25 Mar. 04
Sunrise:07:30 AM (PST) Moon Rise:03:25 AM (PST)2/5
Sunset:05:19 PM (PST) Moon Set:12:34 PM (PST)2/5

Copyright © 2014 The Weather Underground, Inc.